INMARSAT 5-F4 (42698 NORAD) Tracking and Keplerian Element Data

This shows tracking and keplerian element data for the satellite.

Feedback or suggestion? Click here.




ElementValue
Catalog42698
NameINMARSAT 5-F4
Epoch Orbit546
Epoch Day317.82252607
Epoch Year2018
RAAN165.6478
Inclination0.0231
Eccentricity1.59E-05
Argument of Perigee153.0737
Mean Anonmoly41.3051
Mean Motion1.00271762
Decay Rate7.5E-07
L11 42698U 17025A 18317.82252607 .00000075 00000-0 00000-0 0 9998
L22 42698 0.0231 165.6478 0000159 153.0737 41.3051 1.00271762 5460

Live tracking and technical data element details for INMARSAT 5-F4 (NORAD 42698). INMARSAT 5-F4 can be tracked NOW for your location showing map with azimuth and elevation plus other details from your city location.

Track the satellite on the map from your city or location and see movement details for azimuth, elevation, latitude, longitude, range, height, and movement on the map or in text.







IsCatalogInMostPopularTable: catalog: 42698, numindb: 166
Update: records affected: 1



GetName: 42698 INMARSAT 5-F4

Hit Count: updated at: Fri, 16 Nov 2018 03:31:30 GMT